Location: Camp at the Woods
(43.2055°N, 93.0905°W)
Time: 07:51:05
(UTC+00:00)

SL-16 R/B - Pass Details

Date: 05 December 2023
Orbit: 842 x 846 km, 71.0° (Epoch: 29 February)

Event Time Altitude Azimuth Distance (km) Brightness Sun altitude
Rises 12:52:01 0° 190° (S) 3,393 5.5 -6.7°
Reaches altitude 10° 12:54:29 10° 186° (S) 2,462 4.9 -6.3°
Maximum altitude 13:00:00 57° 109° (ESE) 995 3.1 -5.4°
Drops below altitude 10° 13:05:33 10° 32° (NNE) 2,477 4.7 -4.5°
Sets 13:08:02 0° 29° (NNE) 3,416 5.4 -4.1°
